TimeMST,TemperatureF,Dew PointF,Humidity,Sea Level PressureIn,VisibilityMPH,Wind Direction,Wind SpeedMPH,Gust SpeedMPH,PrecipitationIn,Events,Conditions,WindDirDegrees,DateUTC
12:55 AM,59.0,44.1,58,29.90,10.0,Calm,Calm,-,N/A,,Scattered Clouds,0,2012-12-06 07:55:00
1:55 AM,57.9,45.0,62,29.89,10.0,Calm,Calm,-,N/A,,Scattered Clouds,0,2012-12-06 08:55:00
2:55 AM,57.0,43.0,59,29.88,10.0,Calm,Calm,-,N/A,,Scattered Clouds,0,2012-12-06 09:55:00
3:55 AM,55.9,44.1,64,29.87,10.0,North,3.5,-,N/A,,Scattered Clouds,360,2012-12-06 10:55:00
4:55 AM,55.9,42.1,60,29.86,10.0,Calm,Calm,-,N/A,,Scattered Clouds,0,2012-12-06 11:55:00
5:06 AM,-9999,-9999,N/A,-9999,-9999.0,North,-9999.0,-,N/A,,Unknown,0,2012-12-06 12:06:00
5:55 AM,55.0,42.1,62,29.87,10.0,NNE,3.5,-,N/A,,Scattered Clouds,30,2012-12-06 12:55:00
6:55 AM,55.0,42.1,62,29.88,10.0,NE,3.5,-,N/A,,Mostly Cloudy,40,2012-12-06 13:55:00
7:55 AM,55.0,41.0,59,29.89,10.0,NNE,4.6,-,N/A,,Mostly Cloudy,20,2012-12-06 14:55:00
8:55 AM,61.0,41.0,48,29.90,10.0,NE,4.6,-,N/A,,Mostly Cloudy,40,2012-12-06 15:55:00
9:55 AM,66.9,41.0,39,29.91,10.0,NE,6.9,-,N/A,,Mostly Cloudy,50,2012-12-06 16:55:00
10:55 AM,70.0,44.1,39,29.91,10.0,NE,5.8,-,N/A,,Mostly Cloudy,50,2012-12-06 17:55:00
11:55 AM,73.9,42.1,32,29.89,10.0,NNE,4.6,-,N/A,,Mostly Cloudy,30,2012-12-06 18:55:00
12:55 PM,77.0,42.1,29,29.85,10.0,NE,3.5,-,N/A,,Mostly Cloudy,40,2012-12-06 19:55:00
1:00 PM,-9999,-9999,N/A,-9999,-9999.0,North,-9999.0,-,N/A,,Unknown,0,2012-12-06 20:00:00
1:55 PM,80.1,41.0,25,29.82,10.0,NNE,10.4,-,N/A,,Mostly Cloudy,30,2012-12-06 20:55:00
2:55 PM,79.0,39.0,24,29.80,10.0,North,10.4,-,N/A,,Mostly Cloudy,10,2012-12-06 21:55:00
3:55 PM,79.0,39.9,25,29.80,10.0,NNE,9.2,-,N/A,,Mostly Cloudy,20,2012-12-06 22:55:00
4:55 PM,77.0,39.9,26,29.80,10.0,NNE,6.9,-,N/A,,Scattered Clouds,30,2012-12-06 23:55:00
5:55 PM,73.0,42.1,33,29.80,10.0,NE,4.6,-,N/A,,Scattered Clouds,40,2012-12-07 00:55:00
6:55 PM,69.1,42.1,38,29.82,10.0,Calm,Calm,-,N/A,,Partly Cloudy,0,2012-12-07 01:55:00
7:55 PM,66.0,42.1,42,29.83,10.0,Calm,Calm,-,N/A,,Partly Cloudy,0,2012-12-07 02:55:00
8:55 PM,64.0,42.1,45,29.85,10.0,Calm,Calm,-,N/A,,Partly Cloudy,0,2012-12-07 03:55:00
9:55 PM,63.0,42.1,46,29.85,10.0,Calm,Calm,-,N/A,,Clear,0,2012-12-07 04:55:00
10:55 PM,61.0,42.1,50,29.85,10.0,Calm,Calm,-,N/A,,Clear,0,2012-12-07 05:55:00
11:55 PM,61.0,43.0,52,29.85,10.0,Calm,Calm,-,N/A,,Clear,0,2012-12-07 06:55:00